weather.gov     
National Weather Service

Terminal Aerodrome Forecast
NWS Homepage
This page is being discontinued on March 12, 2014.
The same data is available at this site. Please update your bookmarks.
Thank you, and we apologize for the inconvenience.
Please send an email to SR-SRH.Webmaster@noaa.gov with any concerns.


Current Version
Previous Version:    01  02  03  04  05  06  07  08  09  10  11  12  13  14  15  16  17  18  19  20  21  22  23  24  25  26  27  
[Printable]
705
FTUS44 KEPZ 310500
TAFDMN
TAF
KDMN 310525Z 3106/0106 07008KT 3SM -RA BR OVC010
     FM311200 10007KT P6SM VCSH BKN015 OVC100
      TEMPO 3112/3115 2SM BR OVC005
     FM311500 15003KT P6SM VCSH BKN015 BKN080
     FM010300 27007KT P6SM BKN040 OVC100=


U.S. Dept. of Commerce
NOAA National Weather Service
1325 East West Highway
Silver Spring, MD 20910
E-mail: w-nws.webmaster@noaa.gov
Page last modified: May 16, 2007
NATIONAL WEATHER SERVICE: for Safety, for Work, for Fun - FOR LIFE